[Date Prev][Date Next][Thread Prev][Thread Next] - [Date Index][Thread Index][Author Index]
2 Line ISS Keps 10-10
- Subject: [sarex] 2 Line ISS Keps 10-10
- From: "Dave Larsen PhD" <doc@xxxxxxxxxxx>
- Date: Thu, 10 Oct 2002 02:42:16 -0700
ISS
1 25544U 98067A 02283.15516373 .00124164 00000-0 13915-2 0 2381
2 25544 51.6372 195.5813 0017421 353.3764 154.6480 15.61592175221964
----
Via the sarex mailing list at AMSAT.ORG courtesy of AMSAT-NA.
To unsubscribe, send "unsubscribe sarex" to Majordomo@amsat.org
AMSAT Home